Temp
-5 -5 -5 -5 -5 -6 -6 -6 -5 -6 -6 -6 -6 -6 -6 -6 -7 -7 -7 -7 -7 -7 -7 -8 -8 -8 -8 -8 -8 -8 -8 -8 -8 -7 -7 -7 -7 -7 -7 -7 -7 -7
-5 -5 -5 -5 -6 -6 -6 -6 -6 -6 -6 -6 -6 -6 -6 -6 -7 -7 -7 -7 -7 -7 -7 -8 -8 -8 -8 -8 -8 -8 -8 -8 -8 -8 -7 -7 -7 -7 -7 -7 -7 -7
-5 -5 -5 -6 -6 -6 -6 -6 -6 -6 -6 -6 -6 -6 -6 -6 -7 -7 -7 -7 -7 -7 -8 -8 -8 -8 -8 -8 -8 -8 -8 -8 -8 -8 -8 -7 -7 -7 -7 -7 -7 -7
-6 -6 -6 -6 -6 -6 -6 -6 -6 -6 -6 -6 -6 -6 -6 -6 -7 -7 -7 -7 -7 -8 -8 -8 -8 -8 -8 -8 -8 -8 -8 -8 -8 -8 -8 -8 -8 -7 -7 -7 -7 -7
-6 -6 -6 -6 -6 -6 -6 -6 -6 -6 -6 -6 -6 -6 -6 -7 -7 -7 -7 -7 -7 -8 -8 -8 -8 -8 -8 -8 -8 -8 -8 -8 -8 -8 -8 -8 -8 -8 -8 -7 -7 -7
-6 -6 -6 -6 -7 -7 -7 -7 -7 -7 -6 -6 -6 -6 -7 -7 -7 -7 -7 -7 -7 -8 -8 -8 -8 -8 -8 -8 -8 -8 -8 -8 -8 -8 -8 -8 -8 -8 -8 -8 -8 -8
-6 -6 -6 -7 -7 -7 -7 -7 -7 -7 -7 -7 -7 -7 -7 -7 -7 -7 -7 -7 -8 -8 -8 -8 -8 -8 -8 -8 -8 -8 -8 -8 -8 -8 -8 -8 -8 -8 -8 -8 -8 -8
-6 -6 -6 -6 -7 -7 -7 -7 -7 -7 -7 -7 -7 -7 -7 -7 -7 -8 -8 -8 -8 -8 -8 -8 -8 -8 -8 -8 -8 -8 -8 -8 -8 -8 -8 -8 -8 -8 -8 -8 -8 -8
-6 -6 -6 -6 -7 -7 -7 -7 -7 -8 -8 -7 -7 -7 -8 -8 -8 -8 -8 -8 -8 -8 -8 -8 -8 -8 -8 -8 -8 -8 -8 -8 -8 -8 -8 -8 -8 -8 -8 -8 -8 -8
-6 -6 -6 -7 -7 -7 -7 -7 -7 -7 -8 -8 -8 -8 -8 -8 -8 -8 -8 -8 -8 -8 -8 -8 -8 -8 -8 -8 -8 -8 -8 -8 -8 -9 -9 -9 -9 -8 -8 -8 -8 -8
-6 -6 -6 -7 -7 -7 -7 -7 -7 -7 -7 -8 -8 -8 -8 -8 -8 -8 -8 -8 -8 -8 -8 -8 -8 -8 -8 -8 -8 -8 -8 -8 -8 -9 -9 -9 -9 -8 -8 -8 -8 -8
-6 -6 -7 -7 -7 -7 -7 -7 -7 -7 -7 -8 -8 -8 -8 -8 -8 -8 -8 -8 -8 -9 -8 -8 -8 -8 -8 -8 -8 -8 -8 -8 -9 -9 -9 -9 -9 -8 -8 -8 -8 -8
-6 -7 -7 -7 -7 -7 -7 -7 -7 -7 -7 -8 -8 -8 -8 -8 -8 -8 -8 -8 -8 -8 -8 -8 -8 -8 -8 -8 -8 -8 -8 -8 -9 -9 -9 -9 -9 -8 -8 -8 -8 -8
-7 -7 -7 -7 -7 -7 -7 -7 -7 -7 -8 -8 -8 -8 -8 -8 -8 -8 -8 -8 -8 -8 -8 -8 -8 -8 -8 -8 -8 -8 -8 -8 -8 -9 -9 -9 -9 -8 -8 -8 -8 -8
-7 -7 -7 -7 -7 -7 -7 -7 -7 -7 -8 -8 -8 -8 -8 -8 -8 -8 -8 -7 -7 -7 -7 -8 -7 -7 -8 -8 -8 -8 -8 -8 -8 -9 -9 -9 -9 -8 -8 -8 -8 -9
-7 -7 -7 -7 -7 -7 -7 -7 -7 -7 -8 -8 -8 -8 -8 -8 -8 -8 -7 -7 -7 -7 -7 -7 -7 -7 -8 -8 -8 -8 -8 -8 -8 -9 -9 -9 -9 -8 -8 -9 -9 -9
-7 -7 -7 -7 -7 -7 -7 -7 -7 -8 -8 -8 -8 -8 -8 -8 -8 -8 -8 -8 -7 -7 -7 -7 -7 -7 -8 -8 -8 -8 -8 -8 -8 -9 -9 -9 -9 -8 -8 -9 -9 -9
-7 -7 -7 -7 -7 -7 -7 -8 -8 -8 -8 -8 -8 -8 -8 -8 -8 -8 -8 -8 -8 -8 -8 -8 -8 -8 -8 -8 -8 -8 -8 -8 -8 -9 -9 -9 -9 -9 -9 -9 -9 -9
-7 -7 -7 -7 -7 -8 -8 -8 -8 -8 -8 -8 -8 -8 -8 -8 -8 -8 -8 -8 -8 -8 -8 -8 -8 -8 -8 -8 -8 -8 -8 -8 -8 -8 -9 -9 -9 -9 -9 -9 -9 -9
-7 -7 -7 -7 -7 -7 -7 -8 -8 -8 -8 -8 -8 -8 -8 -8 -8 -8 -8 -8 -8 -8 -8 -8 -8 -8 -8 -8 -8 -8 -8 -8 -8 -8 -9 -9 -9 -9 -9 -9 -9 -9
-8 -7 -7 -7 -7 -7 -7 -7 -8 -8 -8 -8 -8 -8 -8 -8 -8 -8 -8 -8 -8 -8 -8 -8 -8 -8 -8 -8 -8 -8 -8 -8 -8 -8 -8 -9 -9 -9 -9 -9 -9 -9
-8 -8 -7 -7 -7 -7 -7 -7 -7 -8 -8 -8 -8 -8 -8 -8 -8 -8 -8 -8 -8 -8 -8 -8 -8 -8 -8 -8 -9 -9 -9 -8 -8 -8 -8 -9 -9 -9 -9 -9 -9 -9
-8 -8 -7 -8 -8 -7 -7 -7 -7 -7 -8 -8 -8 -8 -8 -8 -8 -8 -8 -8 -8 -8 -8 -8 -8 -8 -8 -8 -9 -9 -9 -9 -9 -8 -8 -9 -9 -9 -9 -9 -9 -9
-7 -8 -8 -8 -8 -8 -8 -7 -7 -7 -8 -8 -8 -8 -8 -8 -8 -8 -8 -8 -8 -8 -8 -8 -8 -8 -8 -8 -9 -9 -9 -9 -9 -9 -9 -9 -9 -9 -9 -9 -9 -9
-7 -8 -8 -8 -8 -8 -8 -8 -8 -8 -8 -8 -7 -7 -7 -8 -8 -8 -8 -8 -8 -8 -8 -8 -8 -8 -8 -8 -8 -9 -9 -9 -9 -9 -8 -9 -9 -9 -9 -9 -9 -9
-7 -7 -7 -7 -8 -8 -8 -8 -8 -7 -7 -7 -7 -7 -7 -7 -8 -8 -8 -8 -8 -8 -8 -8 -8 -8 -8 -8 -8 -9 -9 -9 -9 -9 -8 -9 -9 -9 -9 -9 -9 -9
Height
5917 5918 5920 5921 5922 5923 5924 5924 5925 5926 5927 5927 5928 5928 5929 5930 5930 5931 5931 5932 5933 5933 5933 5933 5933 5933 5933 5932 5931 5930 5929 5928 5928 5927 5926 5925 5924 5923 5922 5922 5921 5920
5915 5916 5918 5919 5920 5921 5922 5922 5923 5924 5925 5925 5926 5927 5928 5928 5929 5929 5930 5931 5931 5932 5932 5932 5932 5932 5932 5931 5930 5930 5929 5927 5927 5926 5925 5924 5923 5922 5921 5920 5920 5919
5913 5915 5916 5916 5917 5918 5919 5920 5921 5922 5923 5923 5924 5925 5926 5926 5927 5927 5928 5929 5930 5930 5930 5930 5930 5930 5930 5930 5929 5929 5928 5927 5926 5925 5924 5923 5921 5920 5920 5919 5919 5918
5912 5913 5913 5914 5915 5915 5916 5917 5919 5920 5920 5921 5922 5923 5924 5924 5925 5925 5926 5927 5928 5928 5928 5928 5928 5929 5928 5928 5928 5927 5927 5926 5925 5924 5923 5922 5920 5919 5919 5918 5918 5917
5910 5910 5911 5912 5912 5913 5914 5915 5916 5917 5918 5919 5919 5921 5922 5922 5923 5923 5924 5925 5925 5926 5927 5927 5927 5927 5927 5927 5926 5926 5925 5924 5924 5923 5922 5921 5920 5918 5918 5917 5916 5915
5907 5908 5909 5910 5910 5911 5912 5913 5913 5914 5915 5916 5917 5918 5919 5920 5921 5921 5922 5923 5923 5924 5925 5925 5925 5925 5925 5925 5925 5924 5924 5923 5923 5922 5921 5920 5919 5918 5917 5916 5915 5914
5905 5906 5906 5907 5908 5908 5909 5910 5911 5912 5913 5913 5915 5916 5917 5918 5918 5919 5920 5921 5921 5922 5922 5923 5923 5923 5923 5923 5923 5923 5923 5922 5922 5921 5920 5919 5918 5917 5916 5915 5914 5913
5902 5903 5904 5904 5905 5906 5907 5907 5908 5909 5910 5911 5912 5913 5914 5915 5916 5917 5918 5919 5919 5920 5920 5921 5921 5921 5921 5921 5921 5921 5921 5921 5921 5920 5919 5918 5917 5916 5915 5914 5913 5912
5900 5901 5902 5902 5903 5903 5904 5904 5905 5906 5906 5908 5909 5910 5912 5913 5914 5914 5915 5916 5917 5918 5918 5918 5919 5919 5919 5919 5919 5919 5919 5919 5919 5919 5918 5917 5916 5915 5914 5913 5912 5911
5898 5899 5899 5900 5900 5901 5901 5901 5902 5902 5903 5905 5906 5907 5909 5910 5911 5912 5913 5914 5915 5915 5916 5916 5916 5916 5917 5917 5917 5917 5917 5917 5917 5917 5916 5916 5915 5914 5913 5912 5911 5910
5896 5897 5897 5898 5898 5898 5898 5899 5899 5900 5901 5902 5903 5904 5906 5907 5908 5908 5909 5911 5912 5913 5913 5913 5913 5914 5914 5914 5915 5915 5915 5915 5916 5915 5915 5914 5913 5913 5912 5911 5910 5909
5894 5895 5895 5896 5896 5896 5897 5897 5897 5898 5898 5899 5900 5901 5903 5903 5904 5905 5906 5907 5909 5909 5910 5910 5910 5911 5911 5912 5912 5912 5913 5913 5913 5913 5913 5912 5911 5911 5911 5910 5908 5907
5892 5893 5893 5894 5894 5895 5895 5895 5895 5896 5896 5897 5898 5899 5900 5901 5901 5902 5903 5904 5905 5906 5906 5907 5907 5908 5908 5909 5909 5910 5910 5910 5911 5911 5910 5910 5910 5909 5909 5908 5906 5905
5890 5890 5891 5891 5892 5893 5893 5894 5894 5894 5895 5895 5896 5897 5897 5898 5899 5899 5900 5901 5902 5902 5903 5903 5904 5905 5905 5906 5906 5907 5908 5908 5908 5908 5908 5908 5908 5908 5907 5906 5904 5902
5887 5887 5888 5889 5890 5891 5891 5892 5892 5892 5893 5893 5894 5894 5895 5895 5896 5897 5898 5898 5899 5899 5899 5900 5901 5902 5903 5903 5903 5904 5904 5905 5905 5905 5905 5905 5906 5905 5904 5903 5902 5900
5884 5885 5886 5886 5887 5888 5889 5889 5890 5890 5891 5892 5892 5892 5893 5893 5894 5894 5895 5895 5896 5896 5896 5897 5898 5899 5900 5900 5900 5900 5901 5901 5902 5902 5902 5903 5903 5903 5902 5900 5899 5897
5881 5882 5883 5884 5885 5886 5886 5887 5887 5888 5888 5889 5890 5890 5890 5891 5891 5892 5892 5892 5893 5893 5893 5894 5895 5896 5896 5897 5897 5897 5897 5898 5899 5899 5899 5900 5900 5900 5899 5897 5895 5894
5878 5879 5880 5881 5882 5883 5884 5884 5884 5885 5886 5887 5887 5888 5888 5888 5889 5889 5889 5889 5889 5890 5890 5891 5892 5893 5893 5893 5893 5893 5893 5894 5895 5895 5896 5897 5897 5897 5896 5894 5892 5891
5875 5876 5877 5878 5880 5880 5881 5881 5881 5882 5883 5884 5885 5885 5885 5886 5886 5886 5886 5886 5886 5886 5887 5887 5888 5889 5889 5890 5890 5890 5890 5890 5891 5892 5893 5894 5894 5893 5892 5890 5888 5888
5872 5873 5874 5875 5876 5877 5877 5878 5878 5880 5880 5881 5881 5882 5882 5883 5883 5883 5883 5884 5884 5884 5883 5883 5884 5885 5885 5886 5886 5886 5886 5886 5886 5887 5889 5890 5890 5889 5888 5886 5885 5885
5869 5870 5871 5872 5873 5873 5874 5874 5875 5876 5877 5878 5878 5878 5879 5880 5880 5880 5880 5881 5881 5881 5880 5880 5880 5881 5881 5881 5881 5881 5881 5881 5881 5882 5884 5886 5886 5885 5884 5883 5881 5881
5866 5866 5867 5868 5869 5869 5870 5870 5871 5872 5873 5874 5875 5875 5875 5876 5876 5877 5877 5877 5877 5877 5877 5877 5877 5876 5876 5875 5876 5875 5875 5875 5876 5877 5879 5881 5881 5881 5880 5879 5878 5877
5861 5861 5863 5864 5864 5865 5866 5866 5867 5868 5869 5870 5871 5871 5871 5872 5872 5873 5873 5873 5873 5873 5873 5874 5873 5872 5871 5871 5871 5870 5869 5870 5871 5872 5874 5876 5876 5876 5875 5874 5874 5873
5856 5857 5859 5860 5860 5861 5862 5862 5863 5863 5864 5864 5865 5866 5867 5867 5867 5867 5868 5868 5869 5869 5870 5870 5869 5868 5868 5867 5867 5866 5865 5865 5866 5866 5868 5870 5871 5871 5871 5870 5869 5869
5852 5853 5854 5855 5856 5857 5858 5858 5859 5859 5859 5859 5860 5861 5862 5863 5862 5862 5863 5863 5864 5864 5865 5865 5865 5864 5864 5864 5864 5862 5861 5861 5861 5861 5862 5864 5865 5866 5866 5865 5864 5864
5849 5849 5850 5852 5852 5852 5853 5854 5854 5855 5855 5855 5856 5857 5857 5857 5857 5858 5858 5858 5859 5859 5859 5859 5859 5859 5860 5860 5860 5858 5857 5857 5857 5857 5858 5859 5860 5860 5861 5861 5860 5859
Wind_Speed
17 16 15 16 16 17 18 18 16 16 16 16 16 16 14 13 11 10 9 9 10 11 12 13 12 11 11 9 7 5 4 4 5 7 9 10 11 12 12 12 12 11
17 17 16 16 16 17 18 19 18 17 17 17 17 16 15 13 12 12 11 10 11 11 12 14 13 12 12 10 8 6 5 4 5 7 9 10 10 11 12 12 12 12
19 18 17 16 16 17 18 19 19 18 18 18 17 16 15 14 13 13 13 12 11 12 12 14 14 13 13 12 10 8 6 5 5 7 9 9 10 11 11 12 11 11
21 20 19 19 18 19 19 19 19 19 19 19 19 18 16 15 15 14 14 13 12 12 13 14 15 15 14 13 11 9 7 6 6 7 8 9 10 11 11 11 11 11
23 23 22 21 21 21 20 19 19 20 20 20 20 19 18 17 16 16 15 15 14 13 14 14 15 16 16 14 12 10 8 7 7 8 8 8 9 10 11 12 12 11
21 22 22 23 23 23 22 21 21 21 21 22 22 21 20 19 18 17 16 16 16 15 14 15 15 17 17 15 13 11 9 8 7 8 8 8 8 9 10 11 12 12
19 19 20 21 22 23 23 23 23 23 23 23 23 22 21 20 19 19 18 18 17 17 16 16 16 17 18 16 15 12 10 9 8 8 9 9 8 9 9 10 11 12
18 19 19 19 20 22 23 24 25 25 25 25 24 23 23 22 21 20 19 19 19 18 18 17 17 18 19 17 15 13 11 9 8 9 9 9 9 8 9 10 11 12
17 17 17 17 17 19 21 23 25 27 27 26 25 25 24 23 23 22 21 21 20 20 20 19 18 18 19 18 17 15 12 10 9 9 10 10 9 9 10 11 12 13
15 15 15 15 15 16 18 21 23 26 27 27 26 26 25 24 24 24 23 22 21 21 21 20 19 19 20 20 18 16 14 11 9 9 10 10 10 11 12 14 15 15
14 13 12 12 13 14 16 18 20 22 24 25 26 26 25 25 25 25 24 23 22 22 22 22 22 21 22 21 19 17 15 13 11 10 10 11 12 12 14 16 16 16
13 12 11 11 10 11 12 14 15 17 18 20 21 22 22 23 23 24 23 23 23 23 24 24 24 23 23 22 21 18 16 14 12 12 12 13 13 13 16 17 17 17
13 12 11 11 10 9 8 8 9 10 12 13 14 14 14 15 17 19 20 21 23 24 25 25 25 24 23 23 22 20 18 16 15 14 14 14 14 15 17 17 17 18
14 14 13 12 11 9 7 5 5 6 7 8 9 11 11 12 13 14 16 17 20 22 24 26 25 24 24 24 23 22 20 18 17 16 16 16 15 16 18 18 18 18
16 16 14 13 12 10 8 7 6 6 7 7 8 9 10 11 12 13 13 13 16 20 23 25 24 23 23 24 24 24 22 21 20 18 18 18 16 16 17 19 19 19
18 17 16 15 13 12 12 10 9 9 9 8 8 9 9 10 11 12 13 13 14 16 19 21 21 22 24 25 25 26 25 23 22 20 20 19 17 16 17 18 19 21
19 18 17 16 15 15 15 13 13 13 12 11 10 10 11 10 10 9 11 13 15 16 17 18 18 20 24 26 27 28 28 26 24 23 21 20 18 17 17 18 20 23
19 19 18 17 17 17 18 17 17 17 16 14 13 14 14 12 10 10 11 12 14 16 16 17 18 20 23 26 28 30 30 28 26 25 23 21 20 19 18 20 22 23
20 20 19 19 19 20 21 22 21 20 20 19 18 18 17 14 13 14 14 13 13 14 16 18 19 21 23 26 29 31 31 30 29 27 25 22 22 21 20 22 25 24
22 22 21 21 21 23 24 25 24 23 23 23 23 22 20 18 18 18 17 16 15 15 16 18 19 22 24 26 29 31 33 33 32 30 27 24 23 22 22 24 26 25
24 23 24 23 23 24 25 26 27 26 26 26 27 26 25 23 23 22 21 20 18 17 18 17 18 21 24 26 29 32 34 35 34 32 29 26 25 24 24 25 26 25
27 28 27 26 25 26 26 27 28 28 28 28 29 30 30 28 27 26 26 25 23 22 21 19 19 21 24 27 30 33 36 37 36 34 31 28 27 27 26 26 26 25
33 33 30 28 28 29 28 28 29 29 30 30 30 32 33 33 33 31 31 30 29 28 26 23 23 24 26 29 32 35 37 38 37 36 34 31 30 29 27 27 27 27
39 38 33 30 30 31 30 30 30 30 32 33 34 35 35 35 36 35 34 35 35 34 32 30 28 27 28 30 33 36 38 38 39 39 36 34 33 31 29 29 29 29
39 40 37 33 33 33 31 31 33 33 35 36 36 36 36 37 38 39 39 39 39 38 38 36 34 33 32 31 34 37 39 40 41 41 38 36 35 32 31 31 31 31
37 39 38 36 35 35 34 35 35 35 37 37 37 37 37 39 39 39 40 40 40 41 41 40 38 37 36 34 35 38 41 42 42 42 41 39 37 35 33 33 34 34
Wind_Direction
231 234 237 240 238 235 236 238 238 233 234 237 238 239 243 245 244 244 254 273 287 284 269 264 264 261 265 266 265 284 318 338 352 360 5 9 12 15 16 16 18 19
232 233 234 237 240 240 238 238 239 236 235 238 241 244 246 246 242 243 251 263 281 287 275 267 265 262 264 264 264 278 303 323 341 353 2 8 10 12 14 13 12 11
237 237 236 236 238 240 239 239 240 238 237 238 242 244 245 244 243 245 251 257 271 284 279 271 267 263 264 264 264 275 293 309 329 347 359 7 10 12 13 13 11 7
238 239 239 239 239 240 241 241 241 240 239 239 241 243 245 246 246 247 250 252 260 274 279 275 268 264 266 265 264 273 287 300 323 343 355 3 9 12 14 15 15 11
240 241 241 241 241 242 244 244 244 242 241 240 241 244 246 247 248 249 250 252 256 265 274 276 270 265 265 265 264 272 284 295 316 335 346 357 6 13 16 15 16 14
245 246 246 245 244 244 245 245 245 244 243 243 243 245 247 248 250 251 251 251 255 261 268 273 269 264 264 264 263 268 279 291 310 327 335 345 358 10 15 14 13 11
245 245 245 245 244 244 244 245 246 247 246 245 246 247 249 250 251 252 252 251 253 258 264 268 266 262 262 263 261 264 274 286 303 319 325 331 344 1 10 9 7 5
242 244 245 246 246 244 244 244 245 247 247 247 248 249 250 252 253 254 254 252 252 256 261 265 264 260 260 261 259 261 268 279 297 312 316 319 329 346 355 355 354 355
245 248 251 251 251 249 246 245 245 246 247 248 249 249 250 253 255 256 255 253 252 254 259 262 261 257 257 259 257 258 264 272 288 304 308 310 318 330 337 338 338 339
250 253 255 254 253 250 247 246 245 245 247 248 249 250 252 254 255 256 256 254 251 253 256 259 259 255 253 255 253 253 257 263 277 292 298 299 307 319 326 328 330 330
253 255 256 256 254 252 250 248 247 247 248 249 250 252 253 254 255 256 256 254 250 249 251 253 255 252 251 253 252 250 252 257 267 280 287 291 300 311 318 323 327 327
253 252 253 256 258 258 256 254 252 252 252 253 254 256 257 258 257 256 255 252 247 245 246 249 251 251 250 252 251 248 248 252 260 272 281 287 295 306 313 319 323 323
252 251 252 256 261 264 264 265 265 263 261 261 262 265 267 267 265 262 258 254 248 245 245 246 248 249 250 251 252 249 247 249 255 265 275 283 292 302 309 315 318 320
250 249 251 256 263 268 274 284 294 294 288 282 280 279 277 274 272 270 266 261 256 251 247 247 249 250 249 251 252 250 247 247 251 258 269 278 287 297 304 310 314 316
246 248 251 256 262 269 277 286 299 309 313 313 308 300 291 283 277 276 275 272 266 259 254 252 255 254 250 250 252 251 249 247 248 253 263 273 282 292 299 306 310 310
245 248 251 255 261 267 274 281 290 298 306 314 316 317 314 306 294 286 280 274 270 267 262 260 261 257 250 248 250 252 251 249 248 251 259 268 278 288 294 301 305 303
246 248 251 255 260 266 271 277 284 287 294 302 308 311 312 313 316 308 291 276 269 266 263 263 263 258 251 249 251 252 253 253 251 251 256 265 274 283 290 294 296 298
246 248 251 255 259 264 269 272 274 276 282 290 297 298 297 302 310 310 301 289 276 266 261 261 262 259 255 253 252 253 255 255 254 253 256 262 270 279 287 289 290 297
247 249 251 254 257 260 262 265 267 270 275 280 283 284 286 291 297 297 296 295 287 274 263 259 258 260 261 259 256 255 256 257 257 256 256 260 268 276 283 286 289 297
244 248 252 253 254 255 257 260 263 265 268 271 274 278 281 284 286 286 286 288 290 284 273 262 258 259 261 262 260 257 257 258 259 259 258 260 267 274 279 283 289 297
243 247 251 253 253 254 255 256 259 262 264 266 270 273 276 277 277 279 280 282 285 284 278 270 261 258 258 261 261 259 258 258 259 261 262 262 265 270 275 280 286 293
242 242 245 249 252 253 253 253 255 257 259 262 264 268 271 272 271 273 276 278 278 277 276 273 265 257 253 255 258 257 256 257 259 262 263 263 264 267 271 276 282 287
240 240 239 243 249 251 252 252 253 253 255 257 259 262 265 267 267 268 269 270 271 271 271 270 267 260 254 253 254 255 255 256 259 261 262 262 263 265 270 274 278 282
241 240 237 237 243 247 248 250 250 251 251 252 252 253 254 257 259 259 260 261 264 267 268 268 267 264 260 255 254 255 255 255 256 259 260 261 262 264 268 272 275 279
247 243 238 235 238 242 245 248 250 251 253 255 259 261 262 262 260 259 258 257 256 259 262 263 265 267 265 262 259 257 257 256 256 258 260 261 262 264 265 268 272 276
256 250 244 241 241 241 242 246 250 256 261 265 269 273 274 274 272 270 268 266 263 259 256 255 258 262 265 266 264 261 259 258 258 259 261 261 262 263 263 265 268 272